EHI
2 1 0 0 0 0 0 0 0 0 0 0 0 0 0 0 0 0 0 0 0 0 0 0 1 1 1 0 0 0 0 0 0 0 0 1 3 4 3 2 1 0 0 0 0 0 0 0 0
2 1 0 0 0 0 0 0 0 0 0 0 0 0 0 0 0 0 0 0 0 0 0 0 0 0 0 0 0 0 0 0 0 0 0 1 2 2 1 1 0 0 0 0 0 0 0 0 0
1 0 0 0 0 0 0 0 0 0 0 0 0 0 0 0 0 0 0 0 0 0 0 0 0 0 0 0 0 0 0 0 0 0 0 0 1 1 0 0 0 1 1 0 1 1 1 1 0
0 0 0 0 0 0 0 0 0 0 0 0 0 0 0 0 0 0 0 0 0 0 0 0 0 0 0 0 0 0 0 0 0 0 0 0 0 0 0 0 1 2 2 1 2 2 2 1 1
0 0 0 0 0 0 0 0 0 0 0 0 0 0 0 0 0 0 0 0 0 0 0 0 0 0 1 1 1 1 1 0 0 0 0 0 0 0 0 0 1 1 2 2 2 2 2 1 1
0 0 0 0 0 0 0 0 0 0 0 0 0 0 0 0 0 0 0 0 0 0 0 0 0 0 1 2 2 2 1 0 0 0 0 0 0 0 0 0 0 0 1 1 2 2 1 1 1
0 0 0 0 0 0 0 0 0 0 0 0 0 0 0 0 0 0 0 0 0 0 0 0 0 0 1 1 1 1 0 0 0 0 0 0 0 0 0 0 0 0 0 1 2 2 2 1 1
0 0 0 0 0 0 0 0 0 0 0 0 0 0 0 1 1 0 0 0 0 0 0 0 0 0 0 0 0 0 0 0 0 0 0 0 0 0 0 0 0 0 0 1 2 2 2 2 1
0 0 0 0 0 0 0 0 0 0 0 0 0 0 1 2 2 1 0 0 0 0 0 0 0 0 0 0 0 0 0 0 0 0 0 0 0 0 0 0 0 0 0 0 1 1 2 2 2
0 0 0 0 0 0 0 0 0 0 0 0 0 0 1 3 2 1 0 0 0 0 0 0 0 0 0 0 0 0 0 0 0 0 0 0 0 0 0 0 0 0 0 0 0 1 1 1 1
0 0 0 0 0 0 0 0 0 0 0 0 0 1 2 2 2 1 0 0 0 0 0 0 0 0 0 0 0 0 0 0 0 0 0 0 0 0 0 0 0 0 0 0 0 0 0 0 0
0 0 0 0 0 0 0 0 0 0 0 0 0 1 1 1 1 0 0 0 0 0 0 1 0 0 0 0 0 0 0 0 0 0 0 0 0 0 0 0 0 0 0 0 0 0 0 0 0
0 0 0 0 0 0 0 0 0 0 0 0 0 0 0 0 0 0 0 0 0 0 0 0 0 0 0 0 0 0 0 0 0 0 0 0 0 0 0 0 0 0 0 0 0 0 0 0 0
0 0 0 0 0 0 0 0 0 0 1 1 1 0 0 0 0 1 0 0 0 0 0 0 0 0 0 0 0 0 0 0 0 0 0 0 0 0 0 0 0 0 0 0 0 0 0 0 0
0 0 0 0 0 0 0 0 0 0 1 2 1 0 0 0 0 0 0 0 0 0 0 0 0 0 0 0 0 0 0 0 0 0 0 0 0 0 0 0 0 0 0 0 0 0 0 0 0
0 0 0 0 0 0 0 0 0 0 1 1 0 0 0 0 0 0 0 0 0 0 0 0 0 0 0 0 0 0 0 0 0 0 0 0 0 0 0 0 0 0 0 0 0 0 0 0 0
0 0 0 0 0 0 0 0 0 0 0 0 0 0 0 0 0 0 0 0 0 0 0 0 0 0 0 0 0 0 0 0 0 0 0 0 0 0 0 0 0 0 0 0 0 0 0 0 0
0 0 0 0 0 0 0 0 0 0 0 0 0 0 0 0 0 0 0 0 0 0 0 0 0 0 0 0 0 0 0 0 0 0 0 0 0 0 0 0 0 0 0 0 0 0 0 0 0
0 0 0 0 0 0 0 0 0 0 0 0 0 0 0 0 0 0 0 0 0 0 0 0 0 0 0 0 0 0 0 0 0 0 0 0 0 0 0 0 0 0 0 0 0 0 0 0 0
0 0 0 0 0 0 0 0 0 0 0 0 0 0 0 0 0 0 0 0 0 0 0 0 0 0 0 0 0 0 0 0 0 0 0 0 0 0 0 0 0 0 0 0 0 0 0 0 0
0 0 0 0 0 0 0 0 0 0 0 0 0 0 0 0 0 0 0 0 0 0 0 0 0 0 0 0 0 0 0 0 0 0 0 0 0 0 0 0 0 0 0 0 0 0 0 0 0
0 0 0 0 0 0 0 0 0 0 0 0 0 0 0 0 0 0 0 0 0 0 0 0 0 0 0 0 0 0 0 0 0 0 0 0 0 0 0 0 0 0 0 0 0 0 0 0 0
0 0 0 0 0 0 0 0 0 0 0 0 0 0 0 0 0 0 0 0 0 0 0 0 0 0 0 0 0 0 0 0 0 0 0 0 0 0 0 0 0 0 0 0 0 0 0 0 0
0 0 0 0 0 0 0 0 0 0 0 0 0 0 0 0 0 0 0 0 0 0 0 0 0 0 0 0 0 0 0 0 0 0 0 0 0 0 0 0 0 0 0 0 0 0 0 0 0
0 0 0 0 0 0 0 0 0 0 0 0 0 0 0 0 0 0 0 0 0 0 0 0 0 0 0 0 0 0 0 0 0 0 0 0 0 0 0 0 0 0 0 0 0 0 0 0 0
0 0 0 0 0 0 0 0 0 0 0 0 0 0 0 0 0 1 1 0 0 0 0 0 0 0 0 0 0 0 0 0 0 0 0 0 0 0 0 0 0 0 0 0 0 0 0 0 0
0 0 0 0 0 0 0 0 0 0 0 0 0 0 0 0 0 1 2 1 0 0 0 0 0 0 0 0 0 0 0 0 0 0 0 0 0 0 0 0 0 0 0 0 0 0 0 0 0
0 0 0 0 0 0 0 0 0 0 0 0 0 0 0 0 0 1 2 2 1 0 0 0 0 0 0 0 0 0 0 0 0 0 0 0 0 0 0 0 0 0 0 0 0 0 0 0 0
0 0 0 0 0 0 0 0 0 0 0 0 0 0 0 0 1 2 3 2 1 0 0 0 0 0 0 0 0 0 0 0 0 0 0 0 0 0 0 0 0 0 0 0 0 0 0 0 0
0 0 0 0 0 0 0 0 0 0 0 0 0 0 0 0 1 2 3 2 1 0 0 0 0 0 0 0 0 0 0 0 0 0 0 0 0 0 0 0 0 0 0 0 0 0 0 0 0
Wind_Speed
2 4 3 4 6 6 3 2 1 2 3 3 4 5 6 4 3 3 0 1 3 3 2 5 9 10 10 10 10 10 10 11 11 11 10 10 10 10 10 11 11 10 10 10 10 9 9 9 9
1 2 4 5 6 4 2 2 2 2 3 3 4 5 6 5 3 4 1 2 4 4 3 4 9 10 10 10 10 10 10 10 10 10 10 10 10 10 10 10 11 11 11 10 10 9 9 9 9
2 3 4 5 4 3 2 1 3 3 4 3 4 5 4 3 2 2 2 3 4 4 3 5 9 9 10 10 10 10 10 10 10 10 10 10 10 10 10 10 10 11 10 10 10 9 9 9 9
3 5 5 6 4 0 2 2 3 4 4 5 4 5 3 3 1 3 5 5 5 4 3 4 8 9 9 10 9 10 9 9 9 9 9 9 9 9 10 10 10 10 10 10 10 9 9 9 9
4 5 6 4 3 2 2 1 2 4 3 4 4 5 3 4 4 7 5 4 5 3 3 3 7 8 9 9 9 9 9 8 9 9 9 9 9 9 9 9 10 10 10 9 9 9 10 10 10
5 5 5 3 2 2 2 1 3 5 4 3 4 4 2 1 4 5 5 4 3 3 3 2 5 7 7 8 8 8 7 8 8 8 8 8 9 9 9 9 9 9 10 9 9 10 10 10 10
5 5 4 3 2 1 1 2 3 4 4 3 3 4 2 1 2 4 4 4 3 3 3 3 3 4 5 6 6 7 6 6 7 7 7 8 8 9 9 9 9 10 9 9 9 9 10 10 10
4 5 4 2 3 1 1 2 3 4 3 2 3 5 3 3 4 5 5 4 3 3 3 2 3 3 3 4 5 6 6 6 6 7 7 8 9 9 9 9 9 9 9 9 9 9 10 10 10
4 6 3 3 4 2 2 3 3 3 5 3 3 3 3 6 7 6 4 3 2 2 1 1 2 2 3 3 4 5 6 7 7 6 8 7 5 5 5 7 9 9 9 10 9 9 9 10 9
5 4 2 3 4 4 3 3 4 4 4 3 4 5 6 7 7 6 4 3 2 1 0 0 1 2 2 2 3 3 3 4 4 3 4 3 3 4 5 8 10 10 11 10 10 10 9 7 4
4 4 2 2 3 5 4 3 3 6 2 3 6 7 7 6 5 5 3 3 2 2 1 0 1 1 2 2 2 2 2 2 3 4 3 3 3 3 4 3 5 6 7 5 6 6 4 4 3
4 2 3 3 3 4 4 4 3 2 2 4 7 8 7 7 5 4 4 3 2 2 1 1 1 1 2 2 2 2 2 2 2 3 3 3 2 3 3 3 3 3 3 4 4 3 4 5 4
4 2 3 5 6 6 6 5 3 2 3 6 8 7 6 5 3 2 2 2 2 2 1 1 2 2 2 2 2 2 2 2 2 2 2 3 2 2 3 2 3 3 3 3 4 4 5 5 5
3 4 5 4 5 3 6 3 3 2 5 7 7 6 5 4 3 2 2 2 3 3 2 2 3 3 3 2 2 1 1 1 2 2 2 3 2 2 2 3 3 3 3 3 3 4 4 4 4
5 6 5 3 3 2 5 4 0 3 6 7 5 4 3 3 3 3 3 3 3 3 3 3 3 3 3 3 2 2 2 2 2 2 2 3 2 2 2 3 3 2 2 3 4 4 4 4 5
4 5 2 2 2 2 4 1 2 3 7 6 4 3 3 2 3 2 3 3 3 3 3 3 4 4 3 3 3 2 2 2 2 2 2 3 3 3 3 3 2 2 2 3 3 3 4 4 4
4 2 1 2 0 2 3 3 3 4 6 6 4 3 3 2 2 2 2 3 3 4 4 4 4 4 4 4 3 3 2 3 2 2 2 2 3 3 3 2 2 2 3 3 3 3 3 3 3
3 2 1 2 2 2 2 3 2 4 6 5 4 3 3 4 4 3 2 3 3 3 4 4 4 3 4 3 3 2 3 3 3 2 2 3 2 3 3 3 3 3 3 3 3 4 4 3 2
5 3 2 3 2 3 3 4 4 5 5 5 5 5 5 5 3 2 2 3 3 3 3 4 4 4 3 2 2 2 2 1 2 2 3 3 3 3 3 3 3 3 3 3 3 3 4 3 2
4 3 1 1 1 3 2 4 3 5 7 8 8 8 7 5 3 3 3 3 4 4 4 3 3 4 3 2 2 2 2 1 1 2 3 3 3 3 3 3 3 3 3 4 3 3 2 2 2
2 4 4 3 0 2 1 3 3 4 5 5 6 6 7 8 7 6 5 4 4 4 5 5 4 3 3 3 3 3 3 2 2 2 2 3 3 3 3 3 3 3 3 2 2 2 3 2 2
2 4 4 3 2 1 1 3 6 4 4 7 8 7 8 7 7 6 6 5 5 5 5 5 4 4 3 3 4 4 3 2 0 0 1 2 3 3 3 3 3 3 2 2 2 2 2 3 1
4 2 3 2 2 1 0 1 7 1 5 9 10 10 9 9 8 8 8 7 5 5 5 4 4 4 3 3 4 4 3 2 1 1 2 2 3 3 3 3 3 3 2 2 2 2 2 2 2
5 6 5 5 4 1 3 3 7 4 7 7 9 10 10 9 9 8 6 5 4 4 4 5 5 4 4 4 4 4 4 3 2 1 1 1 1 2 2 3 3 2 2 2 2 2 3 2 2
4 6 3 3 3 4 2 3 9 6 6 8 9 11 10 9 8 7 7 6 6 6 5 5 6 5 4 4 4 4 4 4 3 2 2 1 0 1 1 1 2 2 2 2 2 3 3 2 2
4 7 6 4 3 4 1 5 8 5 4 5 5 6 8 8 8 9 9 8 7 7 7 6 6 5 5 4 4 3 3 3 2 2 2 2 1 1 0 1 2 2 2 2 3 2 2 2 2
6 3 5 5 2 1 4 6 8 3 2 0 3 5 7 9 9 9 8 8 8 8 8 8 7 5 5 5 5 4 4 3 3 2 2 2 1 1 1 2 2 2 2 2 3 2 2 2 2
5 7 5 4 3 2 4 4 5 5 3 1 3 6 7 7 8 8 8 8 8 7 6 6 7 7 6 5 5 4 4 4 3 3 2 2 2 2 2 2 2 2 2 2 3 2 2 3 2
4 4 4 4 4 5 2 7 5 5 4 4 5 5 7 8 8 8 7 7 6 6 6 6 6 5 5 5 4 4 4 3 3 3 3 2 2 2 3 3 2 2 2 2 2 2 2 2 2
5 6 7 5 3 4 3 8 5 4 4 3 4 4 5 6 6 7 7 6 6 6 6 6 6 6 6 5 5 4 4 4 3 3 3 3 3 3 3 3 3 2 2 2 2 2 2 2 1
Wind_Direction
53 74 73 56 56 55 53 11 39 54 61 49 60 73 86 69 77 111 178 85 101 84 59 90 96 93 89 88 87 86 85 84 81 79 76 75 73 71 72 70 71 72 71 68 67 67 67 67 65
91 86 57 59 76 73 22 3 65 59 119 110 62 58 69 64 63 92 98 88 99 95 70 86 98 94 89 85 84 83 85 83 81 79 76 75 73 72 70 69 69 70 70 68 65 64 65 64 65
79 56 75 68 83 126 141 111 106 80 75 77 70 50 61 66 81 108 139 119 95 84 75 97 99 97 92 87 84 84 84 82 81 80 77 74 71 69 68 67 66 66 67 67 64 62 63 65 65
71 46 55 69 79 116 147 138 125 104 61 49 82 67 55 33 89 131 130 114 98 83 75 99 101 97 92 86 83 82 82 82 81 78 76 73 69 65 63 64 64 63 64 63 62 61 62 61 63
62 72 64 58 48 25 59 95 89 84 66 50 76 80 40 359 84 115 119 110 104 89 72 97 104 101 96 90 82 79 80 81 78 73 70 68 64 61 59 61 59 58 59 60 60 61 62 61 63
57 65 79 84 54 30 47 52 89 83 84 70 77 86 50 20 99 117 111 104 100 96 66 69 102 104 98 91 83 76 76 76 73 69 65 61 57 54 54 56 56 54 55 57 59 64 62 60 64
95 85 98 114 103 55 97 73 90 98 90 84 102 94 93 98 98 111 105 99 88 78 65 44 45 66 79 79 77 71 70 71 68 63 58 51 47 47 47 48 48 50 53 56 62 65 64 62 63
113 96 85 95 120 116 107 88 83 97 106 100 98 121 156 169 114 101 89 79 74 70 62 51 39 35 38 39 55 61 59 63 62 61 56 49 41 35 37 36 38 45 50 55 61 64 64 64 64
83 76 107 162 156 156 128 100 74 74 90 68 60 108 137 127 116 105 93 71 69 78 54 50 41 31 32 30 43 43 43 45 49 46 48 44 30 24 24 29 39 46 51 57 59 62 64 63 61
76 103 174 185 164 145 127 110 122 96 80 71 71 74 104 117 123 128 136 149 157 163 219 100 51 36 28 33 37 28 37 37 41 42 40 36 32 26 32 28 41 48 52 55 57 60 61 59 49
92 135 146 110 130 123 113 92 91 116 117 165 151 140 129 126 129 139 154 167 183 188 193 159 109 59 53 39 41 32 34 36 39 44 44 43 37 30 28 26 26 32 43 41 43 49 48 52 54
93 80 117 118 113 107 114 102 81 101 173 155 145 140 138 141 150 159 166 171 164 156 174 149 115 97 75 59 48 45 43 41 40 41 48 54 44 35 25 30 22 31 34 41 40 49 53 55 56
79 73 71 91 86 94 91 85 99 78 97 113 117 121 133 137 142 152 162 167 159 160 173 157 124 114 93 75 56 63 51 49 47 45 43 68 68 48 33 27 31 36 41 48 45 47 53 54 53
111 88 74 76 80 83 99 75 80 113 120 120 127 138 146 150 155 146 155 156 159 159 160 145 127 122 106 89 80 70 57 57 61 54 46 68 81 77 58 43 39 37 39 51 59 57 58 55 55
92 82 52 44 79 100 95 49 32 155 136 137 148 153 156 166 168 176 175 164 166 161 145 138 131 113 106 97 91 80 63 71 65 54 56 73 81 82 77 65 50 32 40 60 62 56 53 57 53
64 66 57 326 106 126 112 185 245 156 149 153 161 165 167 185 194 195 174 155 154 147 138 138 131 114 106 97 84 70 62 70 66 60 60 67 75 82 80 69 50 38 52 64 70 59 60 52 51
45 97 132 310 149 128 136 207 228 162 159 168 176 174 175 186 205 213 187 161 156 156 146 133 122 123 116 101 83 70 62 59 53 55 57 63 69 74 79 71 54 56 62 58 74 59 68 66 58
181 158 166 230 245 144 171 222 213 181 175 182 187 186 190 200 214 207 181 156 147 148 141 135 124 121 115 100 82 63 55 45 43 45 47 60 66 70 76 72 59 67 72 60 66 71 60 65 61
146 147 181 241 216 161 203 226 222 193 187 191 197 201 210 221 228 195 165 150 135 130 137 147 144 145 134 117 107 90 65 34 32 35 43 49 60 64 72 73 63 68 78 78 84 85 71 50 37
134 144 183 293 209 161 206 250 231 198 203 199 199 203 210 213 205 197 180 167 164 162 162 159 161 161 157 138 125 118 114 80 48 22 36 36 48 53 74 77 74 72 82 73 69 82 88 48 33
170 178 189 203 50 56 91 309 250 227 211 208 205 202 207 208 202 201 192 187 176 177 178 174 167 162 158 140 112 87 64 44 31 20 17 15 38 53 66 75 79 74 82 90 80 92 107 106 38
216 204 166 151 113 293 110 288 277 228 219 218 215 206 209 211 202 199 196 193 191 195 184 169 164 160 154 147 138 133 128 126 156 331 11 24 36 52 60 71 77 77 76 82 77 86 98 115 98
192 138 118 110 125 12 333 223 284 218 230 232 221 212 209 205 199 199 199 197 195 188 177 168 158 158 155 148 144 134 129 133 105 60 55 40 29 41 58 70 73 74 73 77 72 75 80 99 121
128 77 62 51 69 312 241 189 280 233 221 229 217 213 206 200 199 199 194 182 183 177 169 164 162 167 160 153 150 150 150 150 133 114 91 45 23 24 42 69 69 73 74 78 81 82 83 84 94
98 96 51 8 9 261 247 202 254 252 230 221 213 209 202 193 191 190 185 184 185 181 178 173 168 173 167 162 166 168 166 161 161 167 170 151 87 13 7 68 76 69 73 83 86 83 76 77 89
164 142 155 187 220 278 289 237 256 267 257 225 209 196 185 185 188 192 192 188 189 188 180 176 178 180 173 173 180 173 163 155 168 177 179 179 184 206 185 118 98 82 77 78 80 78 76 76 79
143 168 160 135 164 277 282 287 300 308 338 42 164 167 185 190 191 195 192 188 189 187 185 183 179 179 180 180 176 173 169 171 180 175 178 181 186 179 145 130 107 88 82 83 89 81 70 78 73
146 144 111 122 152 254 294 287 269 293 291 282 199 198 199 193 191 192 191 190 189 187 183 178 178 183 179 173 179 181 181 183 180 167 180 189 186 157 140 133 116 99 89 89 89 83 72 80 64
118 124 125 130 156 159 256 274 239 238 247 236 226 210 197 191 190 190 193 189 181 171 171 176 180 176 174 177 179 175 179 178 178 185 195 193 178 165 156 148 136 129 121 113 105 97 95 91 65
163 168 151 157 203 172 177 267 278 247 248 229 223 208 194 192 188 184 181 170 169 174 177 180 181 183 184 177 173 180 178 173 185 199 197 183 176 172 166 152 146 148 147 137 133 130 117 117 102